This is the latest recevied weather packets stored in our database for station/object KR4ELZ. If no packets are shown the sender has not sent any weather packets the latest 10 day(s).
| Time | Temp. | Humidity | Pressure | Rain* | Wind** | Luminosity | Snow |
|---|---|---|---|---|---|---|---|
| 1777511608 | 16.11° C | 89% | 1013.1 hPa | 0 mm | - | 0 W/m² | - |
| 1777511306 | 16.67° C | 90% | 1013.3 hPa | 0 mm | - | 0 W/m² | - |
| 1777511001 | 16.67° C | 89% | 1013.3 hPa | 0 mm | - | 0 W/m² | - |
| 1777510698 | 16.67° C | 88% | 1012.9 hPa | 0 mm | - | 0 W/m² | - |
| 1777510394 | 16.67° C | 86% | 1012.9 hPa | 0 mm | - | 0 W/m² | - |
| 1777510090 | 17.22° C | 86% | 1012.8 hPa | 0 mm | - | 0 W/m² | - |
| 1777509788 | 17.22° C | 85% | 1012.8 hPa | 0 mm | - | 1 W/m² | - |
| 1777509483 | 17.22° C | 84% | 1012.7 hPa | 0 mm | - | 2 W/m² | - |
| 1777509181 | 17.22° C | 83% | 1012.6 hPa | 0 mm | - | 2 W/m² | - |
| 1777508878 | 17.78° C | 83% | 1012.5 hPa | 0 mm | - | 3 W/m² | - |
| 1777508574 | 17.78° C | 82% | 1012.2 hPa | 0 mm | - | 4 W/m² | - |
| 1777508271 | 17.78° C | 82% | 1012.4 hPa | 0 mm | - | 4 W/m² | - |
| 1777507969 | 17.78° C | 82% | 1012.1 hPa | 0 mm | - | 6 W/m² | - |
| 1777507665 | 17.78° C | 81% | 1012.5 hPa | 0 mm | - | 8 W/m² | - |
| 1777507362 | 17.78° C | 81% | 1012.4 hPa | 0 mm | - | 9 W/m² | - |
| 1777507060 | 17.78° C | 80% | 1012.5 hPa | 0 mm | - | 10 W/m² | - |
| 1777506757 | 17.78° C | 80% | 1012.3 hPa | 0 mm | - | 14 W/m² | - |
| 1777506453 | 18.33° C | 80% | 1012.2 hPa | 0 mm | - | 17 W/m² | - |
| 1777506149 | 18.33° C | 81% | 1012.4 hPa | 0 mm | - | 17 W/m² | - |
| 1777505845 | 18.33° C | 83% | 1012.3 hPa | 0 mm | - | 23 W/m² | - |
| 1777505542 | 18.33° C | 83% | 1012.4 hPa | 0 mm | - | 24 W/m² | - |
| 1777505238 | 18.33° C | 83% | 1012.1 hPa | 0 mm | - | 23 W/m² | - |
| 1777504935 | 18.33° C | 83% | 1012.3 hPa | 0 mm | - | 26 W/m² | - |
| 1777504632 | 18.33° C | 83% | 1012.3 hPa | 0 mm | - | 30 W/m² | - |
| 1777504330 | 18.33° C | 83% | 1012.6 hPa | 0 mm | - | 32 W/m² | - |
* Rain latest hour (hover to see other rain measurements)
** Current wind speed in m/s (hover to see current wind gust speed)